owner,sensor,date,latitude,longitude,air_temperature,qcFlag 
ADCP,ioos:station:wmo:42887:1,2014-03-06T20:20:00Z,28.1910,-88.4960,20.1,11111222 
ADCP,ioos:station:wmo:42887:1,2014-03-06T20:40:00Z,28.1910,-88.4960,19.4,11111222 
ADCP,ioos:station:wmo:42887:1,2014-03-06T21:00:00Z,28.1910,-88.4960,18.9,11111222 
ADCP,ioos:station:wmo:42887:1,2014-03-06T21:20:00Z,28.1910,-88.4960,18.8,11111222 
ADCP,ioos:station:wmo:42887:1,2014-03-06T21:40:00Z,28.1910,-88.4960,18.6,11111222 
ADCP,ioos:station:wmo:42887:1,2014-03-06T22:00:00Z,28.1910,-88.4960,18.5,11111222 
ADCP,ioos:station:wmo:42887:1,2014-03-06T22:20:00Z,28.1910,-88.4960,18.5,11111222 
ADCP,ioos:station:wmo:42887:1,2014-03-06T22:40:00Z,28.1910,-88.4960,18.4,11111222 
ADCP,ioos:station:wmo:42887:1,2014-03-06T23:00:00Z,28.1910,-88.4960,18.3,11111222 
ADCP,ioos:station:wmo:42887:1,2014-03-06T23:20:00Z,28.1910,-88.4960,18.0,11111222 
ADCP,ioos:station:wmo:42887:1,2014-03-06T23:40:00Z,28.1910,-88.4960,17.9,11111222 
ADCP,ioos:station:wmo:42887:1,2014-03-07T00:00:00Z,28.1910,-88.4960,17.7,11111222 
ADCP,ioos:station:wmo:42887:1,2014-03-07T00:20:00Z,28.1910,-88.4960,17.6,11111222 
ADCP,ioos:station:wmo:42887:1,2014-03-07T00:40:00Z,28.1910,-88.4960,17.6,11111222 
ADCP,ioos:station:wmo:42887:1,2014-03-07T01:00:00Z,28.1910,-88.4960,17.7,11111222 
ADCP,ioos:station:wmo:42887:1,2014-03-07T01:20:00Z,28.1910,-88.4960,17.2,11111222 
ADCP,ioos:station:wmo:42887:1,2014-03-07T01:40:00Z,28.1910,-88.4960,16.6,11111222 
ADCP,ioos:station:wmo:42887:1,2014-03-07T02:00:00Z,28.1910,-88.4960,16.7,11111222 
ADCP,ioos:station:wmo:42887:1,2014-03-07T02:20:00Z,28.1910,-88.4960,17.0,11111222 
ADCP,ioos:station:wmo:42887:1,2014-03-07T02:40:00Z,28.1910,-88.4960,16.8,11111222 
ADCP,ioos:station:wmo:42887:1,2014-03-07T03:00:00Z,28.1910,-88.4960,16.7,11111222 
ADCP,ioos:station:wmo:42887:1,2014-03-07T03:20:00Z,28.1910,-88.4960,17.0,11111222 
ADCP,ioos:station:wmo:42887:1,2014-03-07T03:40:00Z,28.1910,-88.4960,16.9,11111222 
ADCP,ioos:station:wmo:42887:1,2014-03-07T04:00:00Z,28.1910,-88.4960,16.8,11111222 
ADCP,ioos:station:wmo:42887:1,2014-03-07T04:20:00Z,28.1910,-88.4960,16.9,11111222 
ADCP,ioos:station:wmo:42887:1,2014-03-07T04:40:00Z,28.1910,-88.4960,16.5,11111222 
ADCP,ioos:station:wmo:42887:1,2014-03-07T05:00:00Z,28.1910,-88.4960,16.3,11111222 
ADCP,ioos:station:wmo:42887:1,2014-03-07T05:20:00Z,28.1910,-88.4960,16.3,11111222 
ADCP,ioos:station:wmo:42887:1,2014-03-07T05:40:00Z,28.1910,-88.4960,16.1,11111222 
ADCP,ioos:station:wmo:42887:1,2014-03-07T06:00:00Z,28.1910,-88.4960,15.5,11111222 
ADCP,ioos:station:wmo:42887:1,2014-03-07T06:20:00Z,28.1910,-88.4960,15.8,11111222 
ADCP,ioos:station:wmo:42887:1,2014-03-07T06:40:00Z,28.1910,-88.4960,16.2,11111222 
ADCP,ioos:station:wmo:42887:1,2014-03-07T07:00:00Z,28.1910,-88.4960,15.8,11111222 
ADCP,ioos:station:wmo:42887:1,2014-03-07T07:20:00Z,28.1910,-88.4960,16.1,11111222 
ADCP,ioos:station:wmo:42887:1,2014-03-07T07:40:00Z,28.1910,-88.4960,16.1,11111222 
ADCP,ioos:station:wmo:42887:1,2014-03-07T08:00:00Z,28.1910,-88.4960,15.8,11111222 
ADCP,ioos:station:wmo:42887:1,2014-03-07T08:20:00Z,28.1910,-88.4960,15.3,11111222 
ADCP,ioos:station:wmo:42887:1,2014-03-07T08:40:00Z,28.1910,-88.4960,16.0,11111222 
ADCP,ioos:station:wmo:42887:1,2014-03-07T09:00:00Z,28.1910,-88.4960,16.0,11111222 
ADCP,ioos:station:wmo:42887:1,2014-03-07T09:20:00Z,28.1910,-88.4960,15.7,11111222 
ADCP,ioos:station:wmo:42887:1,2014-03-07T09:40:00Z,28.1910,-88.4960,16.0,11111222 
ADCP,ioos:station:wmo:42887:1,2014-03-07T10:00:00Z,28.1910,-88.4960,16.2,11111222 
ADCP,ioos:station:wmo:42887:1,2014-03-07T10:20:00Z,28.1910,-88.4960,16.0,11111222 
ADCP,ioos:station:wmo:42887:1,2014-03-07T10:40:00Z,28.1910,-88.4960,16.2,11111222 
ADCP,ioos:station:wmo:42887:1,2014-03-07T11:00:00Z,28.1910,-88.4960,15.9,11111222 
ADCP,ioos:station:wmo:42887:1,2014-03-07T11:20:00Z,28.1910,-88.4960,15.8,11111222 
ADCP,ioos:station:wmo:42887:1,2014-03-07T11:40:00Z,28.1910,-88.4960,15.7,11111222 
ADCP,ioos:station:wmo:42887:1,2014-03-07T12:00:00Z,28.1910,-88.4960,15.5,11111222 
ADCP,ioos:station:wmo:42887:1,2014-03-07T12:20:00Z,28.1910,-88.4960,15.7,11111222 
ADCP,ioos:station:wmo:42887:1,2014-03-07T12:40:00Z,28.1910,-88.4960,15.9,11111222 
ADCP,ioos:station:wmo:42887:1,2014-03-07T13:00:00Z,28.1910,-88.4960,16.3,11111222 
ADCP,ioos:station:wmo:42887:1,2014-03-07T13:20:00Z,28.1910,-88.4960,16.2,11111222 
ADCP,ioos:station:wmo:42887:1,2014-03-07T13:40:00Z,28.1910,-88.4960,16.2,11111222 
ADCP,ioos:station:wmo:42887:1,2014-03-07T14:00:00Z,28.1910,-88.4960,15.9,11111222 
ADCP,ioos:station:wmo:42887:1,2014-03-07T14:20:00Z,28.1910,-88.4960,15.7,11111222 
ADCP,ioos:station:wmo:42887:1,2014-03-07T14:40:00Z,28.1910,-88.4960,15.7,11111222 
ADCP,ioos:station:wmo:42887:1,2014-03-07T15:00:00Z,28.1910,-88.4960,16.2,11111222 
ADCP,ioos:station:wmo:42887:1,2014-03-07T15:20:00Z,28.1910,-88.4960,16.5,11111222 
ADCP,ioos:station:wmo:42887:1,2014-03-07T15:40:00Z,28.1910,-88.4960,16.1,11111222 
ADCP,ioos:station:wmo:42887:1,2014-03-07T16:00:00Z,28.1910,-88.4960,16.1,11111222 
ADCP,ioos:station:wmo:42887:1,2014-03-07T16:20:00Z,28.1910,-88.4960,16.5,11111222 
ADCP,ioos:station:wmo:42887:1,2014-03-07T16:40:00Z,28.1910,-88.4960,16.5,11111222 
ADCP,ioos:station:wmo:42887:1,2014-03-07T17:00:00Z,28.1910,-88.4960,16.5,11111222 
ADCP,ioos:station:wmo:42887:1,2014-03-07T17:20:00Z,28.1910,-88.4960,16.7,11111222 
ADCP,ioos:station:wmo:42887:1,2014-03-07T17:40:00Z,28.1910,-88.4960,16.7,11111222 
ADCP,ioos:station:wmo:42887:1,2014-03-07T18:00:00Z,28.1910,-88.4960,16.7,11111222 
ADCP,ioos:station:wmo:42887:1,2014-03-07T18:20:00Z,28.1910,-88.4960,16.6,11111222 
ADCP,ioos:station:wmo:42887:1,2014-03-07T18:40:00Z,28.1910,-88.4960,16.4,11111222 
ADCP,ioos:station:wmo:42887:1,2014-03-07T19:00:00Z,28.1910,-88.4960,16.5,11111222 
ADCP,ioos:station:wmo:42887:1,2014-03-07T19:20:00Z,28.1910,-88.4960,16.5,11111222 
ADCP,ioos:station:wmo:42887:1,2014-03-07T19:40:00Z,28.1910,-88.4960,16.5,11111222 
ADCP,ioos:station:wmo:42887:1,2014-03-07T20:00:00Z,28.1910,-88.4960,16.5,11111222 
ADCP,ioos:station:wmo:42887:1,2014-03-07T20:20:00Z,28.1910,-88.4960,16.5,11111222 
ADCP,ioos:station:wmo:42887:1,2014-03-07T20:40:00Z,28.1910,-88.4960,16.7,11111222 
ADCP,ioos:station:wmo:42887:1,2014-03-07T21:00:00Z,28.1910,-88.4960,16.1,11111222 
ADCP,ioos:station:wmo:42887:1,2014-03-07T21:20:00Z,28.1910,-88.4960,15.8,11111222 
ADCP,ioos:station:wmo:42887:1,2014-03-07T21:40:00Z,28.1910,-88.4960,15.7,11111222 
ADCP,ioos:station:wmo:42887:1,2014-03-07T22:00:00Z,28.1910,-88.4960,15.7,11111222 
ADCP,ioos:station:wmo:42887:1,2014-03-07T22:20:00Z,28.1910,-88.4960,16.0,11111222 
ADCP,ioos:station:wmo:42887:1,2014-03-07T22:40:00Z,28.1910,-88.4960,16.0,11111222 
ADCP,ioos:station:wmo:42887:1,2014-03-07T23:00:00Z,28.1910,-88.4960,15.8,11111222 
ADCP,ioos:station:wmo:42887:1,2014-03-07T23:20:00Z,28.1910,-88.4960,15.7,11111222 
ADCP,ioos:station:wmo:42887:1,2014-03-07T23:40:00Z,28.1910,-88.4960,15.3,11111222 
ADCP,ioos:station:wmo:42887:1,2014-03-08T00:00:00Z,28.1910,-88.4960,15.3,11111222 
ADCP,ioos:station:wmo:42887:1,2014-03-08T00:20:00Z,28.1910,-88.4960,15.1,11111222 
ADCP,ioos:station:wmo:42887:1,2014-03-08T00:40:00Z,28.1910,-88.4960,15.0,11111222 
ADCP,ioos:station:wmo:42887:1,2014-03-08T01:00:00Z,28.1910,-88.4960,15.0,11111222 
ADCP,ioos:station:wmo:42887:1,2014-03-08T01:20:00Z,28.1910,-88.4960,14.9,11111222 
ADCP,ioos:station:wmo:42887:1,2014-03-08T01:40:00Z,28.1910,-88.4960,14.9,11111222 
ADCP,ioos:station:wmo:42887:1,2014-03-08T02:00:00Z,28.1910,-88.4960,15.1,11111222 
ADCP,ioos:station:wmo:42887:1,2014-03-08T02:20:00Z,28.1910,-88.4960,15.1,11111222 
ADCP,ioos:station:wmo:42887:1,2014-03-08T02:40:00Z,28.1910,-88.4960,15.1,11111222 
ADCP,ioos:station:wmo:42887:1,2014-03-08T03:00:00Z,28.1910,-88.4960,15.1,11111222 
ADCP,ioos:station:wmo:42887:1,2014-03-08T03:20:00Z,28.1910,-88.4960,15.1,11111222 
ADCP,ioos:station:wmo:42887:1,2014-03-08T03:40:00Z,28.1910,-88.4960,15.5,11111222 
ADCP,ioos:station:wmo:42887:1,2014-03-08T04:00:00Z,28.1910,-88.4960,15.2,11111222 
ADCP,ioos:station:wmo:42887:1,2014-03-08T04:20:00Z,28.1910,-88.4960,15.8,11111222 
ADCP,ioos:station:wmo:42887:1,2014-03-08T04:40:00Z,28.1910,-88.4960,16.1,11111222 
ADCP,ioos:station:wmo:42887:1,2014-03-08T05:00:00Z,28.1910,-88.4960,15.3,11111222 
ADCP,ioos:station:wmo:42887:1,2014-03-08T05:20:00Z,28.1910,-88.4960,16.1,11111222 
ADCP,ioos:station:wmo:42887:1,2014-03-08T05:40:00Z,28.1910,-88.4960,15.4,11111222 
ADCP,ioos:station:wmo:42887:1,2014-03-08T06:00:00Z,28.1910,-88.4960,15.7,11111222 
ADCP,ioos:station:wmo:42887:1,2014-03-08T06:20:00Z,28.1910,-88.4960,16.1,11111222 
ADCP,ioos:station:wmo:42887:1,2014-03-08T06:40:00Z,28.1910,-88.4960,15.8,11111222 
ADCP,ioos:station:wmo:42887:1,2014-03-08T07:00:00Z,28.1910,-88.4960,16.4,11111222 
ADCP,ioos:station:wmo:42887:1,2014-03-08T07:20:00Z,28.1910,-88.4960,16.1,11111222 
ADCP,ioos:station:wmo:42887:1,2014-03-08T07:40:00Z,28.1910,-88.4960,16.5,11111222 
ADCP,ioos:station:wmo:42887:1,2014-03-08T08:00:00Z,28.1910,-88.4960,16.9,11111222 
ADCP,ioos:station:wmo:42887:1,2014-03-08T08:20:00Z,28.1910,-88.4960,16.8,11111222 
ADCP,ioos:station:wmo:42887:1,2014-03-08T08:40:00Z,28.1910,-88.4960,17.0,11111222 
ADCP,ioos:station:wmo:42887:1,2014-03-08T09:00:00Z,28.1910,-88.4960,17.1,11111222 
ADCP,ioos:station:wmo:42887:1,2014-03-08T09:20:00Z,28.1910,-88.4960,17.3,11111222 
ADCP,ioos:station:wmo:42887:1,2014-03-08T09:40:00Z,28.1910,-88.4960,17.7,11111222 
ADCP,ioos:station:wmo:42887:1,2014-03-08T10:00:00Z,28.1910,-88.4960,18.0,11111222 
ADCP,ioos:station:wmo:42887:1,2014-03-08T10:20:00Z,28.1910,-88.4960,18.0,11111222 
ADCP,ioos:station:wmo:42887:1,2014-03-08T10:40:00Z,28.1910,-88.4960,18.4,11111222 
ADCP,ioos:station:wmo:42887:1,2014-03-08T11:00:00Z,28.1910,-88.4960,18.4,11111222 
ADCP,ioos:station:wmo:42887:1,2014-03-08T11:20:00Z,28.1910,-88.4960,18.3,11111222 
ADCP,ioos:station:wmo:42887:1,2014-03-08T11:40:00Z,28.1910,-88.4960,18.0,11111222 
ADCP,ioos:station:wmo:42887:1,2014-03-08T12:00:00Z,28.1910,-88.4960,17.8,11111222 
ADCP,ioos:station:wmo:42887:1,2014-03-08T12:20:00Z,28.1910,-88.4960,18.2,11111222 
ADCP,ioos:station:wmo:42887:1,2014-03-08T12:40:00Z,28.1910,-88.4960,18.2,11111222 
ADCP,ioos:station:wmo:42887:1,2014-03-08T13:00:00Z,28.1910,-88.4960,18.3,11111222 
ADCP,ioos:station:wmo:42887:1,2014-03-08T13:20:00Z,28.1910,-88.4960,18.4,11111222 
ADCP,ioos:station:wmo:42887:1,2014-03-08T13:40:00Z,28.1910,-88.4960,19.0,11111222 
ADCP,ioos:station:wmo:42887:1,2014-03-08T14:00:00Z,28.1910,-88.4960,18.4,11111222 
ADCP,ioos:station:wmo:42887:1,2014-03-08T14:20:00Z,28.1910,-88.4960,18.6,11111222 
ADCP,ioos:station:wmo:42887:1,2014-03-08T14:40:00Z,28.1910,-88.4960,18.7,11111222 
ADCP,ioos:station:wmo:42887:1,2014-03-08T15:00:00Z,28.1910,-88.4960,18.9,11111222 
ADCP,ioos:station:wmo:42887:1,2014-03-08T15:20:00Z,28.1910,-88.4960,18.7,11111222 
ADCP,ioos:station:wmo:42887:1,2014-03-08T15:40:00Z,28.1910,-88.4960,18.8,11111222 
ADCP,ioos:station:wmo:42887:1,2014-03-08T16:00:00Z,28.1910,-88.4960,19.0,11111222 
ADCP,ioos:station:wmo:42887:1,2014-03-08T16:20:00Z,28.1910,-88.4960,18.8,11111222 
ADCP,ioos:station:wmo:42887:1,2014-03-08T16:40:00Z,28.1910,-88.4960,19.5,11111222 
ADCP,ioos:station:wmo:42887:1,2014-03-08T17:00:00Z,28.1910,-88.4960,19.4,11111222 
ADCP,ioos:station:wmo:42887:1,2014-03-08T17:20:00Z,28.1910,-88.4960,20.3,11111222 
ADCP,ioos:station:wmo:42887:1,2014-03-08T17:40:00Z,28.1910,-88.4960,20.7,11111222 
ADCP,ioos:station:wmo:42887:1,2014-03-08T18:00:00Z,28.1910,-88.4960,21.0,11111222 
ADCP,ioos:station:wmo:42887:1,2014-03-08T18:20:00Z,28.1910,-88.4960,21.8,11111222 
ADCP,ioos:station:wmo:42887:1,2014-03-08T18:40:00Z,28.1910,-88.4960,21.2,11111222 
ADCP,ioos:station:wmo:42887:1,2014-03-08T19:00:00Z,28.1910,-88.4960,20.8,11111222 
ADCP,ioos:station:wmo:42887:1,2014-03-08T19:20:00Z,28.1910,-88.4960,20.3,11111222 
ADCP,ioos:station:wmo:42887:1,2014-03-08T19:40:00Z,28.1910,-88.4960,20.3,11111222 
ADCP,ioos:station:wmo:42887:1,2014-03-08T20:00:00Z,28.1910,-88.4960,20.7,11111222 
ADCP,ioos:station:wmo:42887:1,2014-03-08T20:20:00Z,28.1910,-88.4960,20.1,11111222 
ADCP,ioos:station:wmo:42887:1,2014-03-08T20:40:00Z,28.1910,-88.4960,20.0,11111222 
ADCP,ioos:station:wmo:42887:1,2014-03-08T21:00:00Z,28.1910,-88.4960,20.1,11111222 
ADCP,ioos:station:wmo:42887:1,2014-03-08T21:20:00Z,28.1910,-88.4960,20.1,11111222 
ADCP,ioos:station:wmo:42887:1,2014-03-08T21:40:00Z,28.1910,-88.4960,20.1,11111222 
ADCP,ioos:station:wmo:42887:1,2014-03-08T22:00:00Z,28.1910,-88.4960,20.8,11111222 
ADCP,ioos:station:wmo:42887:1,2014-03-08T22:20:00Z,28.1910,-88.4960,20.7,11111222 
ADCP,ioos:station:wmo:42887:1,2014-03-08T22:40:00Z,28.1910,-88.4960,20.7,11111222 
ADCP,ioos:station:wmo:42887:1,2014-03-08T23:00:00Z,28.1910,-88.4960,20.9,11111222 
ADCP,ioos:station:wmo:42887:1,2014-03-08T23:20:00Z,28.1910,-88.4960,20.9,11111222 
ADCP,ioos:station:wmo:42887:1,2014-03-08T23:40:00Z,28.1910,-88.4960,20.9,11111222 
ADCP,ioos:station:wmo:42887:1,2014-03-09T00:00:00Z,28.1910,-88.4960,20.4,11111222 
ADCP,ioos:station:wmo:42887:1,2014-03-09T00:20:00Z,28.1910,-88.4960,20.5,11111222 
ADCP,ioos:station:wmo:42887:1,2014-03-09T00:40:00Z,28.1910,-88.4960,20.2,11111222 
ADCP,ioos:station:wmo:42887:1,2014-03-09T01:00:00Z,28.1910,-88.4960,20.3,11111222 
ADCP,ioos:station:wmo:42887:1,2014-03-09T01:20:00Z,28.1910,-88.4960,20.3,11111222 
ADCP,ioos:station:wmo:42887:1,2014-03-09T01:40:00Z,28.1910,-88.4960,20.2,11111222 
ADCP,ioos:station:wmo:42887:1,2014-03-09T02:00:00Z,28.1910,-88.4960,20.4,11111222 
ADCP,ioos:station:wmo:42887:1,2014-03-09T02:20:00Z,28.1910,-88.4960,20.7,11111222 
ADCP,ioos:station:wmo:42887:1,2014-03-09T02:40:00Z,28.1910,-88.4960,20.3,11111222 
ADCP,ioos:station:wmo:42887:1,2014-03-09T03:00:00Z,28.1910,-88.4960,20.5,11111222 
ADCP,ioos:station:wmo:42887:1,2014-03-09T03:20:00Z,28.1910,-88.4960,20.2,11111222 
ADCP,ioos:station:wmo:42887:1,2014-03-09T03:40:00Z,28.1910,-88.4960,20.0,11111222 
ADCP,ioos:station:wmo:42887:1,2014-03-09T04:00:00Z,28.1910,-88.4960,20.2,11111222 
ADCP,ioos:station:wmo:42887:1,2014-03-09T04:20:00Z,28.1910,-88.4960,20.1,11111222 
ADCP,ioos:station:wmo:42887:1,2014-03-09T04:40:00Z,28.1910,-88.4960,19.9,11111222 
ADCP,ioos:station:wmo:42887:1,2014-03-09T05:00:00Z,28.1910,-88.4960,20.0,11111222 
ADCP,ioos:station:wmo:42887:1,2014-03-09T05:20:00Z,28.1910,-88.4960,20.0,11111222 
ADCP,ioos:station:wmo:42887:1,2014-03-09T05:40:00Z,28.1910,-88.4960,20.2,11111222 
ADCP,ioos:station:wmo:42887:1,2014-03-09T07:00:00Z,28.1910,-88.4960,20.6,11111222 
ADCP,ioos:station:wmo:42887:1,2014-03-09T07:20:00Z,28.1910,-88.4960,20.2,11111222 
ADCP,ioos:station:wmo:42887:1,2014-03-09T07:40:00Z,28.1910,-88.4960,20.1,11111222 
ADCP,ioos:station:wmo:42887:1,2014-03-09T08:00:00Z,28.1910,-88.4960,20.1,11111222 
ADCP,ioos:station:wmo:42887:1,2014-03-09T08:20:00Z,28.1910,-88.4960,19.9,11111222 
ADCP,ioos:station:wmo:42887:1,2014-03-09T08:40:00Z,28.1910,-88.4960,19.9,11111222 
ADCP,ioos:station:wmo:42887:1,2014-03-09T09:00:00Z,28.1910,-88.4960,20.0,11111222 
ADCP,ioos:station:wmo:42887:1,2014-03-09T09:20:00Z,28.1910,-88.4960,20.7,11111222 
ADCP,ioos:station:wmo:42887:1,2014-03-09T09:40:00Z,28.1910,-88.4960,20.7,11111222 
ADCP,ioos:station:wmo:42887:1,2014-03-09T10:00:00Z,28.1910,-88.4960,21.3,11111222 
ADCP,ioos:station:wmo:42887:1,2014-03-09T10:20:00Z,28.1910,-88.4960,21.4,11111222 
ADCP,ioos:station:wmo:42887:1,2014-03-09T10:40:00Z,28.1910,-88.4960,21.3,11111222 
ADCP,ioos:station:wmo:42887:1,2014-03-09T11:00:00Z,28.1910,-88.4960,20.8,11111222 
ADCP,ioos:station:wmo:42887:1,2014-03-09T11:20:00Z,28.1910,-88.4960,20.6,11111222 
ADCP,ioos:station:wmo:42887:1,2014-03-09T11:40:00Z,28.1910,-88.4960,20.3,11111222 
ADCP,ioos:station:wmo:42887:1,2014-03-09T12:00:00Z,28.1910,-88.4960,20.1,11111222 
ADCP,ioos:station:wmo:42887:1,2014-03-09T12:20:00Z,28.1910,-88.4960,20.3,11111222 
ADCP,ioos:station:wmo:42887:1,2014-03-09T12:40:00Z,28.1910,-88.4960,20.3,11111222 
ADCP,ioos:station:wmo:42887:1,2014-03-09T13:00:00Z,28.1910,-88.4960,20.9,11111222 
ADCP,ioos:station:wmo:42887:1,2014-03-09T13:20:00Z,28.1910,-88.4960,21.8,11111222 
ADCP,ioos:station:wmo:42887:1,2014-03-09T13:40:00Z,28.1910,-88.4960,21.7,11111222 
ADCP,ioos:station:wmo:42887:1,2014-03-09T14:00:00Z,28.1910,-88.4960,21.7,11111222 
ADCP,ioos:station:wmo:42887:1,2014-03-09T14:20:00Z,28.1910,-88.4960,22.2,11111222 
ADCP,ioos:station:wmo:42887:1,2014-03-09T14:40:00Z,28.1910,-88.4960,22.1,11111222 
ADCP,ioos:station:wmo:42887:1,2014-03-09T15:00:00Z,28.1910,-88.4960,21.5,11111222 
ADCP,ioos:station:wmo:42887:1,2014-03-09T15:20:00Z,28.1910,-88.4960,20.9,11111222 
ADCP,ioos:station:wmo:42887:1,2014-03-09T15:40:00Z,28.1910,-88.4960,21.3,11111222 
ADCP,ioos:station:wmo:42887:1,2014-03-09T16:00:00Z,28.1910,-88.4960,21.6,11111222 
ADCP,ioos:station:wmo:42887:1,2014-03-09T16:20:00Z,28.1910,-88.4960,21.8,11111222 
ADCP,ioos:station:wmo:42887:1,2014-03-09T16:40:00Z,28.1910,-88.4960,20.3,11111222 
ADCP,ioos:station:wmo:42887:1,2014-03-09T17:00:00Z,28.1910,-88.4960,20.2,11111222 
ADCP,ioos:station:wmo:42887:1,2014-03-09T17:20:00Z,28.1910,-88.4960,21.0,11111222 
ADCP,ioos:station:wmo:42887:1,2014-03-09T17:40:00Z,28.1910,-88.4960,20.4,11111222 
ADCP,ioos:station:wmo:42887:1,2014-03-09T18:00:00Z,28.1910,-88.4960,21.8,11111222 
ADCP,ioos:station:wmo:42887:1,2014-03-09T18:20:00Z,28.1910,-88.4960,21.3,11111222 
ADCP,ioos:station:wmo:42887:1,2014-03-09T18:40:00Z,28.1910,-88.4960,21.3,11111222 
ADCP,ioos:station:wmo:42887:1,2014-03-09T19:00:00Z,28.1910,-88.4960,21.6,11111222 
ADCP,ioos:station:wmo:42887:1,2014-03-09T19:20:00Z,28.1910,-88.4960,20.8,11111222 
ADCP,ioos:station:wmo:42887:1,2014-03-09T19:40:00Z,28.1910,-88.4960,20.6,11111222 
ADCP,ioos:station:wmo:42887:1,2014-03-09T20:00:00Z,28.1910,-88.4960,21.4,11111222 
ADCP,ioos:station:wmo:42887:1,2014-03-09T20:20:00Z,28.1910,-88.4960,22.2,11111222 
ADCP,ioos:station:wmo:42887:1,2014-03-09T20:40:00Z,28.1910,-88.4960,21.0,11111222 
ADCP,ioos:station:wmo:42887:1,2014-03-09T21:00:00Z,28.1910,-88.4960,21.5,11111222 
ADCP,ioos:station:wmo:42887:1,2014-03-09T21:20:00Z,28.1910,-88.4960,20.8,11111222 
ADCP,ioos:station:wmo:42887:1,2014-03-09T21:40:00Z,28.1910,-88.4960,21.8,11111222 
ADCP,ioos:station:wmo:42887:1,2014-03-09T22:00:00Z,28.1910,-88.4960,21.5,11111222 
ADCP,ioos:station:wmo:42887:1,2014-03-09T22:20:00Z,28.1910,-88.4960,21.6,11111222 
ADCP,ioos:station:wmo:42887:1,2014-03-09T22:40:00Z,28.1910,-88.4960,21.3,11111222 
ADCP,ioos:station:wmo:42887:1,2014-03-09T23:00:00Z,28.1910,-88.4960,21.1,11111222 
ADCP,ioos:station:wmo:42887:1,2014-03-09T23:20:00Z,28.1910,-88.4960,21.0,11111222 
ADCP,ioos:station:wmo:42887:1,2014-03-09T23:40:00Z,28.1910,-88.4960,21.2,11111222 
ADCP,ioos:station:wmo:42887:1,2014-03-10T00:00:00Z,28.1910,-88.4960,21.4,11111222 
ADCP,ioos:station:wmo:42887:1,2014-03-10T00:20:00Z,28.1910,-88.4960,21.4,11111222 
ADCP,ioos:station:wmo:42887:1,2014-03-10T00:40:00Z,28.1910,-88.4960,21.1,11111222 
ADCP,ioos:station:wmo:42887:1,2014-03-10T01:00:00Z,28.1910,-88.4960,20.1,11111222 
ADCP,ioos:station:wmo:42887:1,2014-03-10T01:20:00Z,28.1910,-88.4960,20.1,11111222 
ADCP,ioos:station:wmo:42887:1,2014-03-10T01:40:00Z,28.1910,-88.4960,20.0,11111222 
ADCP,ioos:station:wmo:42887:1,2014-03-10T02:00:00Z,28.1910,-88.4960,19.8,11111222 
ADCP,ioos:station:wmo:42887:1,2014-03-10T02:20:00Z,28.1910,-88.4960,19.8,11111222 
ADCP,ioos:station:wmo:42887:1,2014-03-10T02:40:00Z,28.1910,-88.4960,20.8,11111222 
ADCP,ioos:station:wmo:42887:1,2014-03-10T03:00:00Z,28.1910,-88.4960,20.8,11111222 
ADCP,ioos:station:wmo:42887:1,2014-03-10T03:20:00Z,28.1910,-88.4960,20.7,11111222 
ADCP,ioos:station:wmo:42887:1,2014-03-10T03:40:00Z,28.1910,-88.4960,20.7,11111222 
ADCP,ioos:station:wmo:42887:1,2014-03-10T04:00:00Z,28.1910,-88.4960,20.6,11111222 
ADCP,ioos:station:wmo:42887:1,2014-03-10T04:20:00Z,28.1910,-88.4960,20.8,11111222 
ADCP,ioos:station:wmo:42887:1,2014-03-10T04:40:00Z,28.1910,-88.4960,20.9,11111222 
ADCP,ioos:station:wmo:42887:1,2014-03-10T05:00:00Z,28.1910,-88.4960,20.1,11111222 
ADCP,ioos:station:wmo:42887:1,2014-03-10T05:20:00Z,28.1910,-88.4960,19.8,11111222 
ADCP,ioos:station:wmo:42887:1,2014-03-10T05:40:00Z,28.1910,-88.4960,20.2,11111222 
ADCP,ioos:station:wmo:42887:1,2014-03-10T06:00:00Z,28.1910,-88.4960,20.7,11111222 
ADCP,ioos:station:wmo:42887:1,2014-03-10T06:20:00Z,28.1910,-88.4960,20.6,11111222 
ADCP,ioos:station:wmo:42887:1,2014-03-10T06:40:00Z,28.1910,-88.4960,20.6,11111222 
ADCP,ioos:station:wmo:42887:1,2014-03-10T07:00:00Z,28.1910,-88.4960,20.0,11111222 
ADCP,ioos:station:wmo:42887:1,2014-03-10T07:20:00Z,28.1910,-88.4960,19.9,11111222 
ADCP,ioos:station:wmo:42887:1,2014-03-10T07:40:00Z,28.1910,-88.4960,20.0,11111222 
ADCP,ioos:station:wmo:42887:1,2014-03-10T08:00:00Z,28.1910,-88.4960,20.1,11111222 
ADCP,ioos:station:wmo:42887:1,2014-03-10T08:20:00Z,28.1910,-88.4960,20.2,11111222 
ADCP,ioos:station:wmo:42887:1,2014-03-10T08:40:00Z,28.1910,-88.4960,20.5,11111222 
ADCP,ioos:station:wmo:42887:1,2014-03-10T09:00:00Z,28.1910,-88.4960,20.3,11111222 
ADCP,ioos:station:wmo:42887:1,2014-03-10T09:20:00Z,28.1910,-88.4960,20.6,11111222 
ADCP,ioos:station:wmo:42887:1,2014-03-10T09:40:00Z,28.1910,-88.4960,20.5,11111222 
ADCP,ioos:station:wmo:42887:1,2014-03-10T10:00:00Z,28.1910,-88.4960,20.7,11111222 
ADCP,ioos:station:wmo:42887:1,2014-03-10T10:20:00Z,28.1910,-88.4960,20.4,11111222 
ADCP,ioos:station:wmo:42887:1,2014-03-10T10:40:00Z,28.1910,-88.4960,20.4,11111222 
ADCP,ioos:station:wmo:42887:1,2014-03-10T11:00:00Z,28.1910,-88.4960,20.4,11111222 
ADCP,ioos:station:wmo:42887:1,2014-03-10T11:20:00Z,28.1910,-88.4960,20.5,11111222 
ADCP,ioos:station:wmo:42887:1,2014-03-10T11:40:00Z,28.1910,-88.4960,21.7,11111222 
ADCP,ioos:station:wmo:42887:1,2014-03-10T12:00:00Z,28.1910,-88.4960,22.0,11111222 
ADCP,ioos:station:wmo:42887:1,2014-03-10T12:20:00Z,28.1910,-88.4960,22.2,11111222 
ADCP,ioos:station:wmo:42887:1,2014-03-10T12:40:00Z,28.1910,-88.4960,22.2,11111222 
ADCP,ioos:station:wmo:42887:1,2014-03-10T13:00:00Z,28.1910,-88.4960,22.4,11111222 
ADCP,ioos:station:wmo:42887:1,2014-03-10T13:20:00Z,28.1910,-88.4960,22.4,11111222 
ADCP,ioos:station:wmo:42887:1,2014-03-10T13:40:00Z,28.1910,-88.4960,22.4,11111222 
ADCP,ioos:station:wmo:42887:1,2014-03-10T14:00:00Z,28.1910,-88.4960,22.3,11111222 
ADCP,ioos:station:wmo:42887:1,2014-03-10T14:20:00Z,28.1910,-88.4960,22.5,11111222 
ADCP,ioos:station:wmo:42887:1,2014-03-10T14:40:00Z,28.1910,-88.4960,22.2,11111222 
ADCP,ioos:station:wmo:42887:1,2014-03-10T15:00:00Z,28.1910,-88.4960,22.0,11111222 
ADCP,ioos:station:wmo:42887:1,2014-03-10T15:20:00Z,28.1910,-88.4960,22.1,11111222 
ADCP,ioos:station:wmo:42887:1,2014-03-10T15:40:00Z,28.1910,-88.4960,22.4,11111222 
ADCP,ioos:station:wmo:42887:1,2014-03-10T16:00:00Z,28.1910,-88.4960,22.6,11111222 
ADCP,ioos:station:wmo:42887:1,2014-03-10T16:20:00Z,28.1910,-88.4960,22.7,11111222 
ADCP,ioos:station:wmo:42887:1,2014-03-10T16:40:00Z,28.1910,-88.4960,23.3,11111222 
ADCP,ioos:station:wmo:42887:1,2014-03-10T17:00:00Z,28.1910,-88.4960,23.9,11111222 
ADCP,ioos:station:wmo:42887:1,2014-03-10T17:20:00Z,28.1910,-88.4960,24.0,11111222 
ADCP,ioos:station:wmo:42887:1,2014-03-10T17:40:00Z,28.1910,-88.4960,23.9,11111222 
ADCP,ioos:station:wmo:42887:1,2014-03-10T18:00:00Z,28.1910,-88.4960,24.2,11111222 
ADCP,ioos:station:wmo:42887:1,2014-03-10T18:20:00Z,28.1910,-88.4960,23.9,11111222 
ADCP,ioos:station:wmo:42887:1,2014-03-10T18:40:00Z,28.1910,-88.4960,23.7,11111222 
ADCP,ioos:station:wmo:42887:1,2014-03-10T19:00:00Z,28.1910,-88.4960,23.5,11111222 
ADCP,ioos:station:wmo:42887:1,2014-03-10T19:20:00Z,28.1910,-88.4960,23.7,11111222 
ADCP,ioos:station:wmo:42887:1,2014-03-10T19:40:00Z,28.1910,-88.4960,23.7,11111222 
ADCP,ioos:station:wmo:42887:1,2014-03-10T20:00:00Z,28.1910,-88.4960,23.8,11111222 
ADCP,ioos:station:wmo:42887:1,2014-03-10T20:20:00Z,28.1910,-88.4960,23.6,11111222 
ADCP,ioos:station:wmo:42887:1,2014-03-10T20:40:00Z,28.1910,-88.4960,23.4,11111222 
ADCP,ioos:station:wmo:42887:1,2014-03-10T21:00:00Z,28.1910,-88.4960,23.3,11111222 